Location: ???????
(55.3754°N, 39.3545°E)
Time: 08:50:14
(UTC+00:00)

NOAA 11 - Pass Details

Date: 14 April 2026
Orbit: 831 x 848 km, 98.6° (Epoch: 10 May)

Event Time Altitude Azimuth Distance (km) Brightness Sun altitude
Rises 23:43:33 0° 17° (NNE) 3,393 8.7 -18.6°
Reaches altitude 10° 23:45:57 10° 20° (NNE) 2,453 7.7 -18.4°
Maximum altitude 23:51:22 67° 103° (ESE) 904 4.4 -17.9°
Enters shadow 23:54:54 22° 182° (S) 1,744 5.4 -17.6°
